| time (UTC) | temp F | wind direction | speed MPH | gust MPH | rain 1hr in | rain 24hr in | rain mn in | humidity % | barometer mb |
| 20260505113316 | 59 | 0.0 | 0.0 | 0.00 | 0.00 | 0.00 | 50 | 1010.9 | |
| 20260505112317 | 59 | 0.0 | 0.0 | 0.00 | 0.00 | 0.00 | 51 | 1011.0 | |
| 20260505111317 | 59 | 172 | 2.0 | 3.0 | 0.00 | 0.00 | 0.00 | 51 | 1010.9 |
| 20260505110317 | 59 | 0.0 | 0.0 | 0.00 | 0.00 | 0.00 | 51 | 1010.8 | |
| 20260505101316 | 62 | 1 | 3.0 | 4.0 | 0.00 | 0.00 | 0.00 | 46 | 1010.8 |
| 20260505100316 | 62 | 339 | 3.0 | 6.0 | 0.00 | 0.00 | 0.00 | 47 | 1010.7 |
| 20260505095316 | 61 | 19 | 4.0 | 6.0 | 0.00 | 0.00 | 0.00 | 48 | 1010.7 |
| 20260505094317 | 62 | 9 | 5.0 | 6.0 | 0.00 | 0.00 | 0.00 | 46 | 1010.8 |
| 20260505093316 | 62 | 342 | 3.0 | 4.0 | 0.00 | 0.00 | 0.00 | 46 | 1010.8 |
| 20260505092317 | 62 | 337 | 6.0 | 8.0 | 0.00 | 0.00 | 0.00 | 47 | 1010.9 |
| 20260505091317 | 62 | 0.0 | 0.0 | 0.00 | 0.00 | 0.00 | 47 | 1011.0 | |
| 20260505091217 | 62 | 336 | 1.0 | 3.0 | 0.00 | 0.00 | 0.00 | 47 | 1011.0 |
| 20260505090217 | 62 | 287 | 4.0 | 5.0 | 0.00 | 0.00 | 0.00 | 47 | 1011.2 |
| 20260505085217 | 62 | 283 | 3.0 | 3.0 | 0.00 | 0.00 | 0.00 | 48 | 1011.3 |
| 20260505084216 | 62 | 286 | 4.0 | 5.0 | 0.00 | 0.00 | 0.00 | 48 | 1011.4 |
| 20260505083217 | 63 | 266 | 3.0 | 4.0 | 0.00 | 0.00 | 0.00 | 48 | 1011.5 |
| 20260505082217 | 63 | 261 | 7.0 | 9.0 | 0.00 | 0.00 | 0.00 | 47 | 1011.7 |
| 20260505081216 | 63 | 295 | 5.0 | 8.0 | 0.00 | 0.00 | 0.00 | 47 | 1011.9 |
| 20260505080217 | 63 | 344 | 0.0 | 3.0 | 0.00 | 0.00 | 0.00 | 47 | 1011.9 |
| 20260505075216 | 63 | 0.0 | 0.0 | 0.00 | 0.00 | 0.00 | 47 | 1011.9 | |
| 20260505074216 | 64 | 259 | 0.0 | 2.0 | 0.00 | 0.00 | 0.00 | 47 | 1011.9 |
| 20260505073217 | 64 | 302 | 3.0 | 4.0 | 0.00 | 0.00 | 0.00 | 47 | 1011.8 |
| 20260505072217 | 64 | 281 | 1.0 | 4.0 | 0.00 | 0.00 | 0.00 | 47 | 1011.9 |
| 20260505071216 | 64 | 279 | 5.0 | 7.0 | 0.00 | 0.00 | 0.00 | 46 | 1011.8 |
| 20260505070217 | 64 | 270 | 5.0 | 7.0 | 0.00 | 0.00 | 0.00 | 46 | 1011.7 |
| 20260505065216 | 65 | 253 | 6.0 | 7.0 | 0.00 | 0.00 | 0.00 | 45 | 1011.6 |
| 20260505064217 | 65 | 265 | 11.0 | 13.0 | 0.00 | 0.00 | 0.00 | 45 | 1011.5 |
| 20260505063216 | 66 | 270 | 11.0 | 14.0 | 0.00 | 0.00 | 0.00 | 44 | 1011.6 |
| 20260505062217 | 66 | 269 | 5.0 | 9.0 | 0.00 | 0.00 | 0.00 | 44 | 1011.6 |
| 20260505061217 | 66 | 270 | 8.0 | 11.0 | 0.00 | 0.00 | 0.00 | 43 | 1011.4 |
| 20260505060217 | 67 | 260 | 11.0 | 14.0 | 0.00 | 0.00 | 0.00 | 42 | 1011.2 |
| 20260505054217 | 67 | 259 | 10.0 | 13.0 | 0.00 | 0.00 | 0.00 | 41 | 1011.1 |
| 20260505053217 | 68 | 271 | 12.0 | 14.0 | 0.00 | 0.00 | 0.00 | 41 | 1011.1 |
| 20260505052217 | 68 | 272 | 11.0 | 16.0 | 0.00 | 0.00 | 0.00 | 41 | 1011.1 |
| 20260505051216 | 68 | 273 | 9.0 | 11.0 | 0.00 | 0.00 | 0.00 | 40 | 1011.1 |
| 20260505050217 | 69 | 271 | 10.0 | 12.0 | 0.00 | 0.00 | 0.00 | 39 | 1011.0 |
| 20260505041216 | 70 | 262 | 9.0 | 11.0 | 0.00 | 0.00 | 0.00 | 37 | 1010.8 |
| 20260505040217 | 70 | 260 | 7.0 | 9.0 | 0.00 | 0.00 | 0.00 | 37 | 1010.9 |
| 20260505035217 | 71 | 254 | 7.0 | 11.0 | 0.00 | 0.00 | 0.00 | 36 | 1010.8 |
| 20260505034217 | 71 | 252 | 10.0 | 14.0 | 0.00 | 0.00 | 0.00 | 35 | 1010.7 |
| 20260505033716 | 72 | 250 | 9.0 | 12.0 | 0.00 | 0.00 | 0.00 | 34 | 1010.6 |
| 20260505032717 | 72 | 254 | 10.0 | 13.0 | 0.00 | 0.00 | 0.00 | 34 | 1010.3 |
| 20260505031716 | 72 | 236 | 7.0 | 9.0 | 0.00 | 0.00 | 0.00 | 34 | 1010.2 |
| 20260505030717 | 73 | 245 | 6.0 | 8.0 | 0.00 | 0.00 | 0.00 | 34 | 1009.9 |
| 20260505025716 | 74 | 239 | 9.0 | 11.0 | 0.00 | 0.00 | 0.00 | 31 | 1009.7 |
| 20260505024717 | 74 | 251 | 7.0 | 9.0 | 0.00 | 0.00 | 0.00 | 30 | 1009.5 |
| 20260505024417 | 74 | 260 | 7.0 | 10.0 | 0.00 | 0.00 | 0.00 | 29 | 1009.5 |
| 20260505023417 | 76 | 219 | 5.0 | 6.0 | 0.00 | 0.00 | 0.00 | 25 | 1009.3 |
| 20260505022418 | 76 | 210 | 6.0 | 9.0 | 0.00 | 0.00 | 0.00 | 25 | 1009.3 |
| 20260505021417 | 76 | 204 | 5.0 | 6.0 | 0.00 | 0.00 | 0.00 | 25 | 1009.1 |
| 20260505020416 | 76 | 203 | 7.0 | 9.0 | 0.00 | 0.00 | 0.00 | 26 | 1009.1 |
| 20260505015416 | 76 | 196 | 7.0 | 10.0 | 0.00 | 0.00 | 0.00 | 26 | 1009.0 |
| 20260505014417 | 76 | 205 | 6.0 | 7.0 | 0.00 | 0.00 | 0.00 | 26 | 1009.1 |
| 20260505013617 | 77 | 207 | 4.0 | 5.0 | 0.00 | 0.00 | 0.00 | 25 | 1009.0 |
| 20260505013417 | 77 | 204 | 6.0 | 7.0 | 0.00 | 0.00 | 0.00 | 25 | 1009.0 |
| 20260505012917 | 76 | 194 | 6.0 | 9.0 | 0.00 | 0.00 | 0.00 | 25 | 1009.0 |
| 20260505011917 | 77 | 187 | 6.0 | 8.0 | 0.00 | 0.00 | 0.00 | 25 | 1008.9 |
| 20260505010916 | 77 | 190 | 4.0 | 6.0 | 0.00 | 0.00 | 0.00 | 25 | 1009.2 |
| 20260505005917 | 77 | 206 | 6.0 | 9.0 | 0.00 | 0.00 | 0.00 | 25 | 1009.0 |
| 20260505004917 | 78 | 210 | 4.0 | 5.0 | 0.00 | 0.00 | 0.00 | 24 | 1008.9 |
| 20260505003917 | 78 | 155 | 4.0 | 6.0 | 0.00 | 0.00 | 0.00 | 24 | 1009.0 |
| 20260505002916 | 78 | 186 | 3.0 | 5.0 | 0.00 | 0.00 | 0.00 | 24 | 1009.2 |
| 20260505000916 | 80 | 208 | 4.0 | 6.0 | 0.00 | 0.00 | 0.00 | 22 | 1009.3 |
| 20260504235917 | 79 | 217 | 3.0 | 4.0 | 0.00 | 0.00 | 0.00 | 25 | 1009.3 |
| 20260504234916 | 79 | 181 | 2.0 | 3.0 | 0.00 | 0.00 | 0.00 | 26 | 1009.2 |
| 20260504233917 | 79 | 220 | 4.0 | 5.0 | 0.00 | 0.00 | 0.00 | 24 | 1009.3 |
| 20260504232917 | 80 | 218 | 8.0 | 10.0 | 0.00 | 0.00 | 0.00 | 24 | 1009.4 |
| 20260504231917 | 80 | 218 | 7.0 | 9.0 | 0.00 | 0.00 | 0.00 | 24 | 1009.7 |
| 20260504230916 | 80 | 173 | 5.0 | 6.0 | 0.00 | 0.00 | 0.00 | 27 | 1009.7 |
| 20260504225917 | 80 | 220 | 6.0 | 11.0 | 0.00 | 0.00 | 0.00 | 26 | 1009.7 |
| 20260504224917 | 79 | 204 | 4.0 | 7.0 | 0.00 | 0.00 | 0.00 | 26 | 1009.7 |
| 20260504223916 | 80 | 265 | 2.0 | 5.0 | 0.00 | 0.00 | 0.00 | 26 | 1009.7 |
| 20260504222917 | 79 | 196 | 4.0 | 7.0 | 0.00 | 0.00 | 0.00 | 26 | 1009.8 |
| 20260504221917 | 79 | 218 | 2.0 | 4.0 | 0.00 | 0.00 | 0.00 | 25 | 1009.9 |
| 20260504220916 | 79 | 265 | 5.0 | 7.0 | 0.00 | 0.00 | 0.00 | 24 | 1010.1 |
| 20260504215917 | 80 | 230 | 8.0 | 11.0 | 0.00 | 0.00 | 0.00 | 24 | 1010.2 |
| 20260504214916 | 79 | 244 | 3.0 | 5.0 | 0.00 | 0.00 | 0.00 | 24 | 1010.3 |
| 20260504213917 | 81 | 224 | 4.0 | 8.0 | 0.00 | 0.00 | 0.00 | 23 | 1010.5 |
| 20260504212917 | 79 | 0.0 | 0.0 | 0.00 | 0.00 | 0.00 | 25 | 1010.6 | |
| 20260504211916 | 80 | 241 | 5.0 | 7.0 | 0.00 | 0.00 | 0.00 | 24 | 1010.9 |
| 20260504210916 | 78 | 282 | 1.0 | 3.0 | 0.00 | 0.00 | 0.00 | 25 | 1011.0 |
| 20260504205916 | 78 | 251 | 0.0 | 2.0 | 0.00 | 0.00 | 0.00 | 26 | 1011.1 |
| 20260504204916 | 78 | 312 | 6.0 | 8.0 | 0.00 | 0.00 | 0.00 | 26 | 1011.2 |
| 20260504202916 | 77 | 345 | 4.0 | 6.0 | 0.00 | 0.00 | 0.00 | 27 | 1011.3 |
| 20260504201917 | 77 | 324 | 5.0 | 6.0 | 0.00 | 0.00 | 0.00 | 27 | 1011.5 |
| 20260504201316 | 78 | 270 | 5.0 | 7.0 | 0.00 | 0.00 | 0.00 | 26 | 1011.5 |
| 20260504200316 | 76 | 309 | 6.0 | 9.0 | 0.00 | 0.00 | 0.00 | 27 | 1011.7 |
| 20260504195317 | 75 | 347 | 2.0 | 4.0 | 0.00 | 0.00 | 0.00 | 29 | 1011.7 |
| 20260504194317 | 76 | 326 | 5.0 | 7.0 | 0.00 | 0.00 | 0.00 | 28 | 1011.8 |
| 20260504193316 | 75 | 256 | 5.0 | 6.0 | 0.00 | 0.00 | 0.00 | 28 | 1011.9 |
| 20260504192317 | 75 | 262 | 2.0 | 7.0 | 0.00 | 0.00 | 0.00 | 29 | 1011.9 |
| 20260504191317 | 75 | 252 | 7.0 | 9.0 | 0.00 | 0.00 | 0.00 | 30 | 1012.2 |
| 20260504190316 | 74 | 223 | 6.0 | 8.0 | 0.00 | 0.00 | 0.00 | 31 | 1012.4 |
| 20260504185316 | 73 | 245 | 6.0 | 8.0 | 0.00 | 0.00 | 0.00 | 32 | 1012.4 |
| 20260504184317 | 73 | 263 | 6.0 | 7.0 | 0.00 | 0.00 | 0.00 | 33 | 1012.7 |
| 20260504183417 | 72 | 336 | 0.0 | 1.0 | 0.00 | 0.00 | 0.00 | 34 | 1012.8 |
| 20260504182417 | 72 | 256 | 8.0 | 11.0 | 0.00 | 0.00 | 0.00 | 34 | 1012.7 |
| 20260504181417 | 72 | 294 | 5.0 | 7.0 | 0.00 | 0.00 | 0.00 | 35 | 1012.7 |
| 20260504180417 | 71 | 267 | 6.0 | 7.0 | 0.00 | 0.00 | 0.00 | 35 | 1013.0 |
| 20260504175417 | 71 | 294 | 5.0 | 8.0 | 0.00 | 0.00 | 0.00 | 36 | 1012.8 |
| 20260504174417 | 70 | 274 | 5.0 | 6.0 | 0.00 | 0.00 | 0.00 | 37 | 1012.6 |
| 20260504173417 | 70 | 309 | 6.0 | 8.0 | 0.00 | 0.00 | 0.00 | 37 | 1012.8 |
| 20260504172417 | 70 | 303 | 5.0 | 8.0 | 0.00 | 0.00 | 0.00 | 38 | 1013.0 |
| 20260504171416 | 70 | 291 | 6.0 | 8.0 | 0.00 | 0.00 | 0.00 | 38 | 1013.0 |
| 20260504170416 | 69 | 332 | 6.0 | 9.0 | 0.00 | 0.00 | 0.00 | 39 | 1012.4 |
| 20260504160417 | 68 | 299 | 7.0 | 10.0 | 0.00 | 0.00 | 0.00 | 41 | 1012.3 |
| 20260504150417 | 66 | 314 | 7.0 | 9.0 | 0.00 | 0.00 | 0.00 | 45 | 1012.6 |
| 20260504140416 | 65 | 271 | 6.0 | 9.0 | 0.00 | 0.00 | 0.00 | 46 | 1012.4 |
| 20260504130417 | 65 | 270 | 6.0 | 7.0 | 0.00 | 0.00 | 0.00 | 45 | 1011.1 |